Regional Weather Roundup
Issued by NWS

Home | Current Version | Previous Version | Graphics & Text | Print | Product List | Glossary On
Versions: 1 2 3 4 5 6 7 8 9 10 11 12 13 14 15 16 17 18 19 20 21 22 23 24 25 26 27 28 29 30 31 32 33 34 35 36 37 38 39 40 41 42 43 44 45 46 47 48 49 50
000
ASUS43 KMKX 192211
RWRWI

WISCONSIN REGIONAL WEATHER ROUNDUP
NATIONAL WEATHER SERVICE MILWAUKEE/SULLIVAN WI
500 PM CDT TUE AUG 19 2014

NOTE: "FAIR" INDICATES FEW OR NO CLOUDS BELOW 12,000 FEET WITH NO
SIGNIFICANT WEATHER AND/OR OBSTRUCTIONS TO VISIBILITY.

WIZ001-002-006>008-014>016-023>028-192300-
NORTHWEST WISCONSIN

CITY           SKY/WX    TMP DP  RH WIND       PRES   REMARKS
SUPERIOR ARPT  CLOUDY    68  64  87 NE7       29.73S
ASHLAND        CLOUDY    67  61  81 NE7       29.75R
HAYWARD        RAIN      65  64  97 N3        29.74R FOG
SIREN          PTSUNNY   74  63  67 NE5       29.73S
RICE LAKE      PTSUNNY   70  64  82 CALM      29.75R
LADYSMITH      CLOUDY    70  64  81 W7        29.75R
EAU CLAIRE     CLOUDY    69  66  90 N6        29.73R
MENOMONIE      MOCLDY    77  61  58 W7        29.74R
NEW RICHMOND   PTSUNNY   76  62  62 W9        29.75S
OSCEOLA        CLOUDY    74  64  70 W5        29.76S
$$

WIZ003>005-009-010-017-018-192300-
NORTH CENTRAL WISCONSIN

CITY           SKY/WX    TMP DP  RH WIND       PRES   REMARKS
WOODRUFF       CLOUDY    67  60  77 N9        29.74R
RHINELANDER    PTSUNNY   69  60  73 NW9       29.73R
EAGLE RIVER    CLOUDY    66  58  74 N9        29.72S
LAND O LAKES   CLOUDY    62  58  86 NW8       29.74S
PHILLIPS       CLOUDY    67  62  84 N8        29.73S
TOMAHAWK       CLOUDY    68  63  85 NW9       29.73R
MEDFORD        CLOUDY    69  63  81 W9        29.74R
MERRILL        MOSUNNY   69  65  85 NW9       29.72R
$$

WIZ029-030-035-036-043>047-192300-
CENTRAL WISCONSIN

CITY           SKY/WX    TMP DP  RH WIND       PRES   REMARKS
WAUSAU         MOSUNNY   71  66  84 W10       29.70R
MOSINEE        PTSUNNY   73  63  68 W12G17    29.72R
MARSHFIELD     MOSUNNY   75  63  66 W14G20    29.72S
STEVENS POINT  PTSUNNY   74  61  63 W14       29.71S
WAUPACA        MOSUNNY   78  63  60 W9G17     29.70R
WAUTOMA        MOSUNNY   78  62  57 W14       29.71R
WISC RAPIDS    PTSUNNY   74  61  63 NW13      29.73S
CAMP DOUGLAS   SUNNY     77  64  64 W13       29.73S
$$

WIZ011>013-019>022-031-037>040-048>050-192300-
NORTHEAST WISCONSIN

CITY           SKY/WX    TMP DP  RH WIND       PRES   REMARKS
ANTIGO         DRIZZLE   67  63  85 W8        29.72R
STURGEON BAY   PTSUNNY   72  64  78 SE3       29.68S
GREEN BAY      CLOUDY    70  67  90 W3        29.68R
MANITOWOC      SUNNY     77  66  68 W9        29.68S
APPLETON       PTSUNNY   75  63  64 W10       29.70R
CLINTONVILLE   MOSUNNY   77  61  57 W9        29.67S
OSHKOSH        PTSUNNY   76  64  66 W8        29.69S
$$

WIZ032>034-041-042-053>061-192300-
SOUTHWEST WISCONSIN

CITY           SKY/WX    TMP DP  RH WIND       PRES   REMARKS
LA CROSSE      PTSUNNY   79  63  57 NW13      29.73R HX  80
SPARTA         MOSUNNY   78  60  53 W7        29.74S HX  80
VIROQUA        FAIR      76  62  62 NW8       29.76R
BOSCOBEL       MOSUNNY   84  62  47 W8        29.73S HX  85
PRAIRIE DU CHI CLOUDY    81  59  46 W6        29.73S HX  81
PLATTEVILLE    FAIR      80  63  55 W15G21    29.75S HX  82
$$

WIZ056-057-062-063-064-067-068-192300-
SOUTH CENTRAL WISCONSIN

CITY           SKY/WX    TMP DP  RH WIND       PRES   REMARKS
BARABOO/DELLS  MOSUNNY   80  59  48 NW9       29.73R HX  80
LONE ROCK      SUNNY     85  61  44 W15       29.72S HX  85
WATERTOWN      MOSUNNY   80  65  60 NW8       29.70R HX  82
MADISON        MOSUNNY   81  62  52 W10G17    29.71R HX  82
MIDDLETON      MOCLDY    81  60  48 W12       29.73R HX  81
MONROE         MOSUNNY   81  63  54 W15G22    29.73S HX  82
JANESVILLE     MOSUNNY   84  61  45 W17       29.70R HX  84
$$

WIZ051-052-058>065-066-070>072-192300-
SOUTHEAST WISCONSIN

CITY           SKY/WX    TMP DP  RH WIND       PRES   REMARKS
MILWAUKEE      PTSUNNY   77  66  68 E7        29.69R
WAUKESHA       MOSUNNY   79  64  61 NW10      29.71R HX  81
MILWAUKEE/TIMM MOSUNNY   81  63  54 W14G20    29.69S HX  82
RACINE         MOSUNNY   82  68  62 NW8       29.71R HX  85
BURLINGTON     MOSUNNY   79  63  57 W7        29.71R HX  80
KENOSHA        MOSUNNY   80  66  62 W14       29.70R HX  82
FOND DU LAC    SUNNY     78  64  61 W13       29.70R HX  80
SHEBOYGAN      SUNNY     78  63  59 W9        29.69S HX  80
WEST BEND      MOSUNNY   77  61  57 NW5       29.70S
JUNEAU         MOSUNNY   78  39  25 W9        29.72R
$$

LSZ147-162-192300-
LAKE SUPERIOR

STATION/POSITION TIME  TEMP    WIND        PRES    WAVE
                       AIR SEA DIR/SP/G            HT/PER
                 (UTC) (F)     (DEG/KT/KT) (MB)    (FT/S)
W MID LAKE BUOY  2150   56 56   20/ 12/ 14 1006.9R   2/ 5
PORT WING        2100   62      50/  7/  8 1007.5R
SAXON HARBOR     2140   62      40/  9/ 10 1007.5R
$$

LMZ867-665-643>646-192300-
LAKE MICHIGAN

STATION/POSITION TIME  TEMP    WIND        PRES    WAVE
                       AIR SEA DIR/SP/G            HT/PER
                 (UTC) (F)     (DEG/KT/KT) (MB)    (FT/S)
N MID LAKE BUOY  2150   63 62  180/ 12/ 14 1003.7F   2/ 4
NORTHPORT PIER   2100   69     150/  7/  9 1004.1S
SISTER BAY       2026   77        CALM       N/A
KEWAUNEE LAKESHO 2100   76     240/  3/  6 1004.0R
SHEBOYGAN LAKESH 2200   77 66  260/  7/  9 1005.3F
ATWATER BUOY     2200   71      90/  4     1006.9R
MILWAUKEE LAKESH 2100   81     280/  7/ 10   N/A
S MID LAKE BUOY  2150   71 67   20/  2/  4 1005.9R   2/ 4
KENOSHA   LAKESH 2200   83     290/ 13/ 21 1004.7S
$$

TC  - TEMPERATURE IN CELSIUS
VSB - VISIBILITY IN STATUTE MILES
WCI - WIND CHILL INDEX
HX  - HEAT INDEX




USA.gov is the U.S. government's official web portal to all federal, state and local government web resources and services.